SCP
0 0 0 0 0 0 0 0 -0 0 0 0 0 0 0 0 0 0 0 0 0 0 0 0 0 0 0 0 0 0 0 0 0 0 0 0 0 0 0 0 0 0 0 0
0 0 0 0 0 0 0 0 0 0 0 0 0 0 0 0 0 0 0 0 0 0 0 0 0 0 0 0 0 0 0 0 0 0 0 0 0 0 0 0 0 0 0 0
0 0 0 0 0 0 0 0 0 0 0 0 0 0 0 0 0 0 0 0 0 0 0 0 0 0 0 0 0 0 0 0 0 0 0 0 0 0 0 0 0 0 0 0
0 0 0 0 0 0 0 0 0 0 0 0 0 0 0 0 0 0 0 0 0 0 0 0 0 0 0 0 0 0 0 0 0 0 0 0 0 0 0 0 0 0 0 0
0 0 0 0 0 0 0 0 0 0 0 0 0 0 0 0 0 0 0 0 0 0 0 0 0 0 0 0 0 0 0 0 0 0 0 0 0 0 0 0 0 0 0 0
0 0 0 0 0 0 0 0 0 0 0 0 0 0 0 0 0 0 0 0 0 0 0 0 0 0 0 0 0 0 0 0 0 0 0 0 0 0 0 0 0 0 0 0
0 0 0 0 0 0 0 0 0 0 0 0 0 0 0 0 0 0 0 0 0 0 0 0 0 0 0 0 0 0 0 0 0 0 0 0 0 0 0 0 0 0 0 0
0 0 0 0 0 0 0 0 0 0 0 0 0 0 0 0 0 0 0 0 0 0 0 0 0 0 0 0 0 0 0 0 0 0 0 0 0 0 0 0 0 0 0 0
0 0 0 0 0 0 0 0 0 0 0 0 0 0 0 0 0 0 0 0 0 0 0 0 0 0 0 0 0 0 0 0 0 0 0 0 0 0 0 0 0 0 0 0
0 0 0 0 0 0 0 0 0 0 0 0 0 0 0 0 0 0 0 0 0 0 0 0 0 0 0 0 0 0 0 0 0 0 0 0 0 0 0 0 0 0 0 0
0 0 0 0 0 0 0 0 0 0 0 0 0 0 0 0 0 0 0 0 0 0 0 0 0 0 0 0 0 0 0 0 0 0 0 0 0 0 0 0 0 0 0 0
0 0 0 0 0 0 0 0 0 0 0 0 0 0 0 0 0 0 0 0 0 0 0 0 0 0 0 0 0 0 0 0 0 0 0 0 0 0 0 0 0 0 0 0
0 0 0 0 0 0 0 0 0 0 0 0 0 0 0 0 0 0 0 0 0 0 0 0 0 0 0 0 0 0 0 0 0 0 0 0 0 0 0 0 0 0 0 0
0 0 0 0 0 0 0 0 0 0 0 0 0 0 0 0 0 0 0 0 0 0 0 0 0 0 0 0 0 0 0 0 0 0 0 0 0 0 0 0 0 0 0 0
0 0 0 0 0 0 0 0 0 0 0 0 0 0 0 0 0 0 0 0 0 0 0 0 0 0 0 0 0 0 0 0 0 0 0 0 0 0 0 0 0 0 0 0
0 0 0 0 0 0 0 0 0 0 0 0 0 0 0 0 0 0 0 0 0 0 0 0 0 0 0 0 0 0 0 0 0 0 0 0 0 0 0 0 0 0 0 0
0 0 0 0 0 0 0 0 0 0 0 0 0 0 0 0 0 0 0 0 0 0 0 0 0 0 0 0 0 0 0 0 0 0 0 0 0 0 0 0 0 0 0 0
0 0 0 0 0 0 0 0 0 0 0 0 0 0 0 0 0 0 0 0 0 0 0 0 0 0 0 0 0 0 0 0 0 0 0 0 0 0 0 0 0 0 0 0
0 0 0 0 0 0 0 0 0 0 0 0 0 0 0 0 0 0 0 0 0 0 0 0 0 0 0 0 0 0 0 0 0 0 0 0 0 0 0 0 0 0 0 0
0 0 0 0 0 0 0 0 0 0 0 0 0 0 0 0 0 0 0 0 0 0 0 0 0 0 0 0 0 0 0 0 0 0 0 0 0 0 0 0 0 0 0 0
0 0 0 0 0 0 0 0 0 0 0 0 0 0 0 0 0 0 0 0 0 0 0 0 0 0 0 0 0 0 0 0 0 0 0 0 0 0 0 0 0 0 0 0
0 0 0 0 0 0 0 0 0 0 0 0 0 0 0 0 0 0 0 0 0 0 0 0 0 0 0 0 0 0 0 0 0 0 0 0 0 0 0 0 0 0 0 0
0 0 0 0 0 0 0 0 0 0 0 0 0 0 0 0 0 0 0 0 0 0 0 0 0 0 0 0 0 0 0 0 0 0 0 0 0 0 0 0 0 0 0 0
0 0 0 0 0 0 0 0 0 0 0 0 0 0 0 0 0 0 0 0 0 0 0 0 0 0 0 0 0 0 0 0 0 0 0 0 0 0 0 0 0 0 0 0
0 0 0 0 0 0 0 0 0 0 0 0 0 0 0 0 0 0 0 0 0 0 0 0 0 0 0 0 0 0 0 0 0 0 0 0 0 0 0 0 0 0 0 0
0 0 0 0 0 0 0 0 0 0 0 0 0 0 0 0 0 0 0 0 0 0 0 0 0 0 0 0 0 0 0 0 0 0 0 0 0 0 0 0 0 0 0 0
0 0 0 0 0 0 0 0 0 0 0 0 0 0 0 0 0 0 0 0 0 0 0 0 0 0 0 0 0 0 0 0 0 0 0 0 0 0 0 0 0 0 0 0
Wind_Speed
8 6 7 9 9 8 10 10 10 8 7 4 2 5 8 9 10 9 9 9 8 7 6 5 5 4 4 4 4 4 6 7 7 7 7 8 9 9 9 10 11 10 11 11
10 8 8 10 11 10 10 10 9 9 7 1 2 4 6 8 9 10 9 9 8 7 6 6 5 5 4 5 4 5 6 7 7 8 8 9 9 9 10 10 10 10 11 12
10 7 9 10 7 6 7 6 7 7 2 3 4 5 7 8 9 9 8 8 7 7 6 5 5 4 5 5 5 5 6 7 8 8 9 9 9 10 10 10 10 11 11 12
9 8 10 3 1 3 5 5 5 4 2 2 2 3 5 7 8 8 7 7 7 6 5 5 4 5 4 5 5 6 7 7 8 8 9 9 10 10 10 10 10 10 11 11
8 10 9 5 5 5 6 5 3 4 2 3 3 4 7 8 8 7 7 6 5 5 5 4 4 4 4 6 6 7 7 7 8 8 9 10 10 10 10 10 10 11 11 11
8 9 8 0 4 2 5 6 2 4 3 4 6 6 2 7 8 8 7 6 5 5 5 5 4 4 5 6 7 7 7 7 8 8 9 10 10 11 10 10 11 11 11 11
9 9 6 4 4 5 6 3 3 2 3 5 7 5 2 4 6 7 7 7 7 6 5 5 4 5 6 7 7 7 7 8 8 8 9 10 10 10 10 10 11 11 12 11
6 8 2 6 3 2 5 5 2 3 4 6 7 6 3 4 5 7 8 8 8 6 6 5 5 6 7 7 7 7 7 8 9 9 9 9 9 10 10 10 11 11 10 11
3 3 6 3 3 5 6 6 6 5 5 5 7 6 6 6 6 7 8 8 7 7 6 6 6 6 8 7 6 7 8 9 9 10 9 9 10 10 10 9 9 9 9 9
4 1 3 4 5 7 7 8 8 7 6 5 6 6 6 6 6 7 7 8 7 7 7 6 6 6 7 7 6 7 9 9 9 9 10 9 8 9 9 9 9 9 9 9
6 2 2 5 9 10 9 8 6 6 5 4 5 5 4 4 5 5 5 6 6 7 6 6 5 6 6 6 6 8 9 9 10 10 9 9 9 8 10 10 9 10 10 10
4 6 6 6 9 10 9 9 8 7 6 4 4 4 3 3 2 3 4 4 5 6 6 6 6 7 7 6 7 8 9 9 9 8 7 8 9 9 9 12 12 13 14 13
4 5 5 5 7 9 9 9 9 9 8 7 6 5 4 3 2 2 2 3 5 6 6 6 7 7 7 7 7 9 10 10 9 9 8 9 9 10 10 9 11 15 16 15
3 2 5 7 8 9 9 9 9 10 9 8 7 7 6 4 3 3 3 3 4 6 6 7 8 8 7 7 8 9 10 10 9 9 9 9 9 9 9 10 10 8 7 13
8 8 8 8 9 10 10 10 11 11 11 10 9 8 8 7 6 5 5 5 5 6 7 7 8 9 7 7 9 10 10 9 8 8 9 9 9 9 9 10 9 9 8 5
8 9 9 10 11 11 12 12 11 11 11 10 10 9 8 7 7 7 6 6 7 8 8 9 9 9 8 8 9 9 9 10 9 9 10 9 9 9 9 9 9 8 8 7
8 9 9 10 10 11 11 11 10 10 10 10 10 10 9 9 9 8 9 9 8 9 10 10 10 9 9 9 10 9 8 7 8 9 10 9 8 9 9 9 8 8 7 5
9 8 8 8 9 9 9 10 10 10 10 10 10 10 10 10 10 10 10 10 10 10 10 10 10 10 11 10 9 9 9 8 8 8 8 8 8 8 9 9 8 8 7 5
7 7 7 7 7 7 8 8 9 9 9 9 10 10 10 10 11 11 11 12 12 11 10 11 10 12 12 10 8 8 9 10 8 8 8 7 8 9 8 8 7 7 7 6
5 6 7 7 7 7 8 8 8 8 8 9 9 10 10 11 11 12 12 12 10 10 12 13 13 12 11 9 7 9 9 9 9 8 7 7 8 8 8 8 7 6 7 6
5 6 7 8 8 8 8 9 9 9 9 9 9 10 11 11 12 12 12 12 11 11 12 12 11 9 9 7 7 9 8 8 8 7 7 7 7 7 7 7 6 6 6 6
6 7 8 9 9 9 9 9 9 10 10 10 10 11 11 12 13 12 12 10 11 10 11 12 10 9 9 10 9 8 8 8 7 6 6 6 7 7 6 6 5 5 5 5
7 8 9 10 10 11 11 10 10 10 10 11 11 11 12 12 11 11 11 10 11 12 12 11 9 9 10 10 8 7 7 7 7 6 5 6 6 5 5 6 5 5 5 4
9 9 10 10 11 12 12 11 11 10 11 12 11 11 11 11 10 10 11 10 10 11 12 9 7 8 10 8 7 6 6 6 6 6 6 5 4 4 4 4 4 4 4 5
10 11 12 12 12 10 11 11 12 11 12 10 12 11 10 9 10 11 11 13 12 12 12 9 5 6 8 6 5 5 5 4 4 5 5 5 4 4 4 4 4 4 4 4
11 11 11 11 11 10 11 10 10 9 10 10 10 10 10 9 11 10 9 12 14 11 11 9 7 6 6 5 4 4 4 3 3 3 4 5 5 4 4 4 5 4 3 3
12 11 10 10 10 10 9 9 10 10 10 11 11 11 11 11 11 10 12 11 10 10 9 8 7 6 5 4 3 3 3 3 3 4 4 4 4 4 4 4 3 3 4 3
Wind_Direction
276 280 273 274 272 250 248 270 284 295 298 297 215 200 191 186 182 184 187 191 195 200 199 208 218 231 247 264 270 278 282 285 289 292 291 289 288 287 287 286 284 283 281 278
265 258 262 268 268 262 252 256 265 276 284 13 137 172 177 186 188 193 196 200 198 201 206 215 225 239 251 263 271 271 277 285 292 293 292 291 289 287 286 285 285 284 281 280
268 263 264 260 256 248 236 235 256 272 319 120 175 189 192 192 198 205 205 203 203 207 212 220 229 241 254 264 270 272 277 284 289 291 292 293 293 292 291 290 287 285 283 282
263 260 256 282 91 260 258 252 249 271 266 200 213 198 198 199 205 210 209 206 206 211 211 217 222 231 246 265 267 272 278 283 288 290 292 293 292 292 292 291 289 287 287 286
255 249 249 227 189 216 236 250 227 241 233 181 157 199 204 201 210 214 210 206 206 212 214 216 227 234 247 262 270 275 279 284 289 292 293 292 292 295 295 293 289 288 286 284
239 259 263 264 109 162 244 246 176 204 216 184 187 244 225 166 194 207 204 195 197 200 206 211 227 235 246 262 272 278 285 289 291 289 288 289 292 294 294 291 287 287 286 285
244 251 256 58 116 188 240 354 52 217 220 200 216 267 46 152 186 199 199 195 194 202 211 216 220 228 247 265 275 285 290 289 287 286 285 284 287 289 290 288 288 287 288 285
237 246 258 74 159 248 356 2 336 281 249 232 237 240 207 192 193 198 200 200 198 203 212 211 214 226 247 263 277 283 283 283 285 286 287 289 287 286 287 286 284 282 282 284
301 355 52 26 342 350 342 321 316 296 276 251 246 240 226 217 211 209 206 204 203 208 213 214 216 229 250 264 274 278 279 281 285 287 286 284 284 285 284 279 280 286 289 290
263 260 24 21 6 350 334 315 308 301 292 271 257 255 242 227 220 218 213 207 206 211 219 222 225 233 247 259 266 271 275 281 284 283 282 283 282 282 286 291 291 291 291 291
255 311 326 40 18 360 351 345 334 322 311 302 284 281 275 254 242 236 229 221 213 217 226 233 235 242 248 251 257 266 274 278 281 282 284 287 282 281 284 287 291 290 294 294
335 14 341 1 4 358 2 7 6 2 1 359 342 326 317 302 283 259 247 233 225 227 235 240 243 247 248 249 250 260 269 274 280 283 287 286 288 287 257 249 258 250 251 262
333 349 11 15 15 12 18 24 27 28 25 22 18 8 4 359 347 306 261 238 238 243 245 247 250 252 252 249 247 252 264 275 282 287 288 286 289 291 295 281 244 240 241 242
41 78 62 39 31 26 26 30 36 38 35 31 26 21 14 8 2 345 314 286 270 266 262 259 259 258 257 250 248 254 262 267 265 273 279 283 286 287 288 293 300 299 255 229
67 69 69 57 45 38 33 32 34 31 28 26 24 19 10 0 354 345 334 320 301 285 280 277 273 274 269 258 252 255 262 266 271 280 282 281 283 284 284 287 290 296 303 272
84 74 65 56 45 37 32 29 27 23 21 18 16 13 6 359 353 351 347 337 321 308 302 292 284 283 278 264 258 255 255 253 258 275 278 278 278 282 287 291 293 296 299 306
79 63 50 41 36 32 28 24 20 15 12 12 8 4 1 0 357 354 348 341 326 310 301 295 293 294 282 267 261 263 266 257 231 254 267 275 282 286 290 291 293 298 302 311
69 58 43 30 22 18 15 14 12 9 4 0 358 357 356 355 350 345 338 330 321 311 307 307 308 299 284 271 263 266 267 268 265 269 277 280 287 289 289 290 296 299 301 302
56 43 30 20 8 2 0 358 356 355 352 351 350 349 346 344 340 334 331 324 316 313 323 324 317 295 285 278 268 260 263 266 267 269 271 272 271 275 282 290 297 303 303 306
37 21 10 2 356 349 343 341 338 337 340 341 339 338 338 336 333 329 324 313 317 325 327 325 313 299 291 283 264 264 263 265 268 272 275 277 281 286 289 293 300 306 303 303
3 355 350 345 339 333 332 330 326 325 327 328 327 328 329 328 326 325 320 316 326 336 327 312 302 305 302 306 269 266 267 268 269 272 278 281 285 290 295 302 308 308 308 310
340 338 335 331 327 324 323 317 312 313 315 315 318 322 322 322 322 320 315 317 322 341 326 315 318 333 324 303 274 271 273 270 269 273 280 283 286 292 300 303 305 306 310 315
317 319 319 319 317 313 308 304 303 303 305 307 309 312 316 317 315 313 314 327 326 333 317 313 329 325 306 282 274 276 276 274 274 276 276 278 285 294 297 302 307 310 317 328
303 305 307 307 306 300 297 300 302 298 295 294 294 301 305 305 307 312 318 322 322 318 312 319 314 304 287 280 283 281 281 282 283 285 286 289 293 295 301 309 315 322 332 335
295 296 295 297 294 294 297 294 290 287 286 291 296 300 302 308 312 315 315 315 318 314 315 319 305 293 287 293 292 293 292 305 315 309 301 305 306 305 310 316 324 327 333 338
289 287 291 291 291 291 290 291 292 297 299 300 300 304 309 310 309 310 309 311 316 318 313 314 318 305 300 305 309 312 312 312 306 302 317 317 312 317 321 327 331 328 328 339
283 279 274 272 276 281 288 291 292 294 296 297 301 306 307 305 305 309 310 310 314 317 319 319 320 315 313 323 333 330 333 338 333 326 325 320 318 320 318 321 330 326 325 348